This demonstration page uses our WeatherBlox Daily Observations layout. Learn more.

Left ArrowRight Arrow

41.12389, -100.76542

Hourly Observations for September 22, 2020

Temp ( °F °C ) Dew Point ( °F °C ) Humidity (%) Winds ( mph kmh ) Pressure ( in mb ) Visibility ( mi km ) Precip ( " mm )
12:53 am 00:53 Clear 67 19.4 49 9.4 53 53 S 8 13 30.02 1017 10 16 0.00 0.00
1:53 am 01:53 Clear 66 18.9 49 9.4 54 54 S 9 15 30.01 1016 10 16 0.00 0.00
2:53 am 02:53 Clear 64 17.8 49 9.4 58 58 S 8 13 30.01 1016 10 16 0.00 0.00
3:53 am 03:53 Clear 55 12.8 48 8.9 77 77 Calm 30.02 1017 10 16 0.00 0.00
4:53 am 04:53 Clear 52 11.1 47 8.3 83 83 SSE 3 6 30.02 1017 10 16 0.00 0.00
5:53 am 05:53 Clear 51 10.6 47 8.3 86 86 Calm 30.02 1017 10 16 0.00 0.00
6:53 am 06:53 Clear 50 10 46 7.8 86 86 E 3 6 30.04 1017 10 16 0.00 0.00
7:53 am 07:53 Sunny 50 10 46 7.8 86 86 Calm 30.05 1018 10 16 0.00 0.00
8:53 am 08:53 Sunny 54 12.2 50 10 87 87 E 3 6 30.06 1018 N/A 0.00 0.00
9:53 am 09:53 Sunny 61 16.1 52 11.1 72 72 S 3 6 30.04 1017 10 16 0.00 0.00
10:53 am 10:53 Sunny 71 21.7 52 11.1 51 51 S 7 11 30.02 1017 10 16 0.00 0.00
11:53 am 11:53 Sunny 77 25 51 10.6 40 40 SSE 6 9 30.00 1016 10 16 0.00 0.00
12:53 pm 12:53 Sunny 82 27.8 53 11.7 37 37 SE 3 6 29.98 1015 10 16 0.00 0.00
1:53 pm 13:53 Sunny 87 30.6 47 8.3 25 25 S 13 20 29.95 1014 10 16 0.00 0.00
2:53 pm 14:53 Sunny 88 31.1 47 8.3 24 24 S 13 20 29.93 1014 10 16 0.00 0.00
3:53 pm 15:53 Sunny 89 31.7 45 7.2 22 22 S 13 20 29.93 1014 10 16 0.00 0.00
4:53 pm 16:53 Sunny 88 31.1 47 8.3 24 24 S 12 19 29.92 1013 10 16 0.00 0.00
5:53 pm 17:53 Sunny 86 30 46 7.8 25 25 SSE 12 19 29.92 1013 10 16 0.00 0.00
6:53 pm 18:53 Sunny 81 27.2 49 9.4 33 33 SSE 6 9 29.92 1013 10 16 0.00 0.00
7:53 pm 19:53 Clear 71 21.7 49 9.4 46 46 ESE 6 9 29.95 1014 10 16 0.00 0.00
8:53 pm 20:53 Clear 66 18.9 49 9.4 54 54 ESE 9 15 29.97 1015 10 16 0.00 0.00
9:53 pm 21:53 Clear 63 17.2 50 10 63 63 SE 6 9 29.98 1015 10 16 0.00 0.00
10:53 pm 22:53 Clear 69 20.6 49 9.4 49 49 SSE 9 15 29.95 1014 10 16 0.00 0.00
11:53 pm 23:53 Clear 68 20 48 8.9 49 49 SSE 8 13 29.95 1014 10 16 0.00 0.00

Powered by AerisWeather